Flag Weather past 2 weeks in Brandenburg an der Havel, Brandenburg, Germany

Now
36 °F

Passing clouds.


Feels Like: 31 °F
Forecast: 40 / 51 °F
Wind: 6 mph from Southeast

Location: Potsdam

Current Time: Nov 23, 2014 at 2:35:42 AM

Latest Report: Nov 23, 2014 at 2:00 AM


Visibility: 19 mi

Pressure: 30.25 "Hg

Humidity: 95%

Dew point: 35 °F

Location of Brandenburg an der HavelLocation

Historic Weather in Brandenburg an der Havel — Graph

°F

Brandenburg an der Havel temperature yesterday

Maximum temperature yesterday: 44 °F (at 2:00 PM)
Minimum temperature yesterday: 38 °F (at 11:00 PM)
Average temperature yesterday: 41 °F

Past Weeks' High & Low Weather Summary

 TemperatureHumidityPressure
High54 °F (Nov 8, 1:00 PM)100% (Nov 9, 9:00 AM)30.37 "Hg (Nov 9, 9:00 AM)
Low36 °F (Nov 9, 6:00 AM)70% (Nov 8, 1:00 PM)29.57 "Hg (Nov 16, 2:00 PM)
Average45 °F93%29.96 "Hg
* Reported Nov 8 1:00 AM — Nov 23 1:00 AM, Brandenburg an der Havel, Weather by CustomWeather, © 2014

Note: Actual official high and low records may vary slightly from our data, if they occured in-between our weather recording intervals... More about our weather records

Advertising

Brandenburg an der Havel weather history for previous 24 hours

 ConditionsComfort  
Time TempWeatherWind HumidityBarometerVisibility
1:00 AM
Nov 23
37 °FPassing clouds.5 mph94%30.25 "Hg22 mi
12:00 AM37 °FPassing clouds.5 mph92%30.26 "Hg19 mi
11:00 PM
Nov 22
38 °FPassing clouds.5 mph89%30.26 "Hg19 mi
10:00 PM40 °FOvercast.6 mph86%30.26 "Hg19 mi
9:00 PM40 °FOvercast.6 mph85%30.27 "Hg17 mi
8:00 PM41 °FOvercast.5 mph81%30.27 "Hg16 mi
7:00 PM41 °FOvercast.6 mph80%30.24 "Hg16 mi
6:00 PM40 °FOvercast.5 mph82%30.26 "Hg19 mi
5:00 PM39 °FPassing clouds.5 mph84%30.26 "Hg17 mi
4:00 PM42 °FPartly sunny.6 mph76%30.25 "Hg19 mi
3:00 PM43 °FPartly sunny.6 mph73%30.24 "Hg17 mi
2:00 PM44 °FOvercast.6 mph72%30.25 "Hg17 mi
1:00 PM44 °FOvercast.6 mph74%30.25 "Hg17 mi
12:00 PM43 °FPartly sunny.6 mph75%30.27 "Hg17 mi
11:00 AM43 °FOvercast.5 mph76%30.29 "Hg17 mi
10:00 AM42 °FOvercast.5 mph78%30.29 "Hg16 mi
9:00 AM41 °FOvercast.3 mph82%30.28 "Hg16 mi
8:00 AM41 °FOvercast.3 mph82%30.27 "Hg14 mi
7:00 AM41 °FOvercast.3 mph83%30.27 "Hg16 mi
6:00 AM41 °FOvercast.3 mph83%30.27 "Hg17 mi
5:00 AM41 °FOvercast.3 mph83%30.27 "Hg17 mi
4:00 AM41 °FOvercast.3 mph84%30.27 "Hg17 mi
3:00 AM41 °FOvercast.3 mph86%30.28 "Hg19 mi
2:00 AM41 °FOvercast.2 mph86%30.29 "Hg19 mi
Weather by CustomWeather, © 2014

See weather overviewHow to use our weather pages